Flag for India Weather past 2 weeks in Vellore, Tamil Nadu, India

Now
91 °F

Scattered clouds.


Feels Like: 100 °F
Forecast: 72 / 91 °F
Wind: 10 mph from Southeast

Location: Madras / Minambakkam

Current Time: Mar 6, 2015 at 1:53:38 PM

Latest Report: Mar 6, 2015 at 12:40 PM


Visibility: N/A

Pressure: 29.92 "Hg

Humidity: 56%

Dew point: 73 °F

Location of VelloreLocation

Historic Weather in Vellore — Graph

°F

Vellore temperature yesterday

Maximum temperature yesterday: 91 °F (at 11:40 AM)
Minimum temperature yesterday: 79 °F (at 3:40 AM)
Average temperature yesterday: 85 °F

Past Weeks' High & Low Weather Summary

 TemperatureHumidityPressure
High91 °F (Feb 24, 1:40 PM)94% (Feb 20, 12:40 AM)30.01 "Hg (Feb 20, 12:40 AM)
Low68 °F (Feb 25, 5:40 AM)27% (Feb 25, 12:40 PM)29.74 "Hg (Feb 26, 3:40 PM)
Average81 °F73%29.87 "Hg
* Reported Feb 19 11:40 AM — Mar 6 11:40 AM, Vellore, Weather by CustomWeather, © 2015

Note: Actual official high and low records may vary slightly from our data, if they occured in-between our weather recording intervals... More about our weather records

Advertising

Vellore weather history for previous 24 hours

 ConditionsComfort  
Time TempWeatherWind HumidityBarometerVisibility
11:40 AM
Fri, Mar 6
90 °FScattered clouds.6 mph59%29.95 "HgN/A
10:40 AM88 °FScattered clouds.9 mph66%29.98 "HgN/A
9:40 AM88 °FScattered clouds.6 mph62%29.98 "Hg5 mi
7:40 AM81 °FFog.No wind89%29.95 "Hg2 mi
6:40 AM77 °FFog.2 mph94%29.92 "Hg2 mi
5:40 AM77 °FFog.2 mph94%29.89 "Hg2 mi
4:40 AM79 °FPassing clouds.No wind89%29.86 "Hg4 mi
3:40 AM81 °FPassing clouds.5 mph89%29.86 "Hg4 mi
2:40 AM81 °FPassing clouds.3 mph89%29.86 "Hg4 mi
1:40 AM82 °FPassing clouds.3 mph84%29.89 "Hg4 mi
12:40 AM82 °FPassing clouds.No wind84%29.92 "Hg4 mi
11:40 PM
Thu, Mar 5
82 °FPassing clouds.9 mph84%29.92 "Hg4 mi
10:40 PM82 °FPassing clouds.12 mph84%29.95 "Hg4 mi
9:40 PM82 °FPassing clouds.8 mph84%29.95 "Hg4 mi
8:40 PM84 °FPassing clouds.9 mph79%29.92 "Hg4 mi
7:40 PM84 °FPassing clouds.13 mph79%29.89 "Hg4 mi
6:40 PM84 °FScattered clouds.12 mph79%29.86 "Hg4 mi
5:40 PM84 °FScattered clouds.9 mph79%29.83 "Hg4 mi
4:40 PM86 °FScattered clouds.9 mph75%29.83 "Hg4 mi
3:40 PM90 °FScattered clouds.9 mph67%29.83 "Hg5 mi
2:40 PM90 °FScattered clouds.9 mph67%29.83 "Hg5 mi
1:40 PM90 °FScattered clouds.13 mph67%29.86 "Hg5 mi
Weather by CustomWeather, © 2015

See weather overviewHow to use our weather pages